Résultats

Les Boucles Bel Air : La boucle des jeunes - 1KM - (2001-2004). Édition 2012.

1 Km
08/05/2012 à 00:00:00 - ()
35 arrivant(e)s.


 
Les autres classements de cet évènement




Place▲ Temps Dossard Nom Prenom Categ #Categ Sexe #Sexe Club Vit Moy Diplôme Partager
1 00:04:53 788 LATOUR ROMAIN POM 1 M 1 ASPTT MARSEILLE 9.9
2 00:04:57 785 CANZANO MATHIEU POM 2 M 2 9.9
3 00:05:09 793 PELEGRIN YANN POM 3 M 3 9.9
4 00:05:15 760 DUVAL GUILLEMETTE POF 1 F 1 OLYMPIQUE CABRIES CALAS 9.9
5 00:05:17 796 FRIEDEWALD SAMUEL POM 4 M 4 9.9
6 00:05:17 772 PRADAL ELRIC POM 5 M 5 9.9
7 00:05:19 769 MOLLARD ROBIN POM 6 M 6 9.9
8 00:05:30 792 TARILLON AURELIEN EAM 1 M 7 9.9
9 00:05:33 762 GIORDANENGO PIERRE EAM 2 M 8 9.9
10 00:05:33 775 SAILLY LUCIE EAF 1 F 2 9.9
11 00:05:36 779 TOPPE AXEL POM 7 M 9 USC SEPTEMES 9.9
12 00:05:39 777 SYMARD BARNABE EAM 3 M 10 SMUC 9.9
13 00:05:45 766 LAIMECHE INES POF 2 F 3 RTM 9.9
14 00:05:46 794 ROUX MAELYS POF 3 F 4 9.9
15 00:05:47 765 LAIMECHE FARES EAM 4 M 11 RTM 9.9
16 00:05:53 783 AGHIOUL ELIANE POF 4 F 5 USC SEPTEMES 9.9
17 00:05:54 774 RUBIO LUCAS EAM 5 M 12 9.9
18 00:06:00 768 MIEUGARD MAXIME POM 8 M 13 9.9
19 00:06:03 753 BOYER ADRIEN EAM 6 M 14 9.9
20 00:06:04 786 DUMAINE ETHEL POF 5 F 6 9.9
21 00:06:06 780 MILAZZO VINCENT EAM 7 M 15 9.9
22 00:06:18 764 LAGACHE CORALIE POF 6 F 7 9.9
23 00:06:23 776 SAUTEREAU ETHAN EAM 8 M 16 9.9
24 00:06:26 782 DHO ANAIS POF 7 F 8 9.9
25 00:06:29 759 DESQUIENS JULIETTE EAF 2 F 9 9.9
26 00:06:46 778 TERRANOVA CARLA POF 8 F 10 9.9
27 00:06:47 791 ARBIOL ALICE EAF 3 F 11 9.9
28 00:07:10 756 COULON GIULIA EAF 4 F 12 9.9
29 00:07:20 773 PUCCI EVA POF 9 F 13 9.9
30 00:07:21 752 BOUCHEK LEA POF 10 F 14 9.9
31 00:07:32 761 GAZELLE JOEY POM 9 M 17 9.9
32 00:07:36 795 RESPAUD EMILIE EAF 5 F 15 9.9
33 00:08:12 763 HASSAN-HAMOUD TESNIM EAF 6 F 16 9.9
34 00:08:18 757 COULON NOEMIE POF 11 F 17 9.9
35 00:09:11 784 BOIZIS HANNAH POF 12 F 18 9.9